Starlink 35902

operational
NORAD ID: 66626 Int'l Des: 2025-271 Owner: SPXS Country: US Constellation: starlink
LEOCIRCULAR

Starlink 35902について

説明を読み込み中...

リアルタイム位置

3D地球を読み込み中...

次回通過

高度履歴

Altitude vs Time

uPlot chart will show altitude changes over time

軌道要素

1 66626U 25271K 26063.46945113 .00056496 00000-0 19028-2 0 9995
2 66626 53.1614 164.4506 0001097 120.0523 240.0587 15.30239551 16764
Epoch: Mar 4, 2026 • Age: 18 hours

現在のステータス

高度 482.0 km
速度 7.62 km/s
衛星直下点 -24.28°S, 76.64°W
打ち上げ日 Nov 23, 2025
運用期間 0.2 years
タイプ internet

技術仕様

分類 Payload
質量 575.00 kg
乾燥質量 530.00 kg
総質量 575.00 kg
長さ 0.30 m
直径 4.10 m
スパン 29.00 m
形状 Box + pan
製造者 SPXS
バスタイプ Starlink V2MO
フェーズステータス In Orbit
所有者/国 SPXS/US

大規模コンステレーション

Loading constellations...